Location: Waco, TX
(31.5481°N, 97.1672°W)
Time: 15:57:52
(UTC-05:00)

ISS - Pass Details

Date: 17 March 2018
Orbit: 403 x 408 km, 51.6° (Epoch: 20 September)

Event Time Altitude Azimuth Distance (km) Brightness Sun altitude
Exits shadow 06:09:55 - 344° (NNW) 1,808 -0.6 -19.1°
Reaches altitude 10° 06:11:05 10° 357° (N) 1,485 -0.9 -18.9°
Maximum altitude 06:13:04 15° 34° (NNE) 1,225 -0.8 -18.5°
Drops below altitude 10° 06:15:01 10° 70° (ENE) 1,474 0.2 -18.1°
Sets 06:17:47 0° 96° (E) 2,327 1.5 -17.5°
